Weather History for Rutland, VT

Change the Weather History Date:

Thursday, January 9, 2014

  Actual Average Record
Temperature  
Mean Temperature 16 °F -  
Max Temperature 23 °F - 59 °F (2008)
Min Temperature 9 °F - -20 °F (1968)
Degree Days  
Heating Degree Days 49    
Month to date heating degree days 494  
Since 1 July heating degree days 3426  
Cooling Degree Days 0    
Month to date cooling degree days 0  
Year to date cooling degree days 0  
Moisture  
Dew Point 4 °F    
Average Humidity 64    
Maximum Humidity 83    
Minimum Humidity 44    
Precipitation  
Precipitation 0.00 in - 1.30 in (1978)
Month to date precipitation 0.51  
Year to date precipitation 0.51  
Sea Level Pressure  
Sea Level Pressure 30.49 in    
Wind  
Wind Speed 9 mph (WSW)    
Max Wind Speed 13 mph    
Max Gust Speed 21 mph    
Visibility 10 miles    
Events      
T = Trace of Precipitation, MM = Missing Value Source: NWS Daily Summary

Daily Weather History Graph

Daily Weather History Graph

Search for Another Location

Airport:

Trip Planner

Search our weather history database for the weather conditions in past years. The results will help you decide how hot, cold, wet, or windy it might be!

Date:

Astronomy

Jan. 09, 2014 Rise Set
Actual Time 7:24 AM EST 4:34 PM EST
Civil Twilight 6:52 AM EST 5:06 PM EST
Nautical Twilight 6:16 AM EST 5:41 PM EST
Astronomical Twilight 5:41 AM EST 6:16 PM EST
Moon 12:03 PM EST (1/9) 1:24 AM EST (1/9)
Length of Visible Light 10h 14m
Length of Day
9h 09m
Waxing Gibbous, 66% of the Moon is Illuminated
Jan 9
Waxing Gibbous
Jan 15
Full
Jan 24
Last Quarter
Jan 30
New
Feb 6
First Quarter

Hourly Weather History & Observations

Time (EST) Temp. Windchill Dew Point Humidity Pressure Visibility Wind Dir Wind Speed Gust Speed Precip Events Conditions
12:15 AM 15.8 °F 5.1 °F 1.4 °F 53% 30.35 in 10.0 mi SW 8.1 mph - N/A   Overcast
12:35 AM 15.8 °F 5.1 °F 1.4 °F 53% 30.36 in 10.0 mi SW 8.1 mph - N/A   Overcast
12:55 AM 15.8 °F 5.1 °F 1.4 °F 53% 30.35 in 10.0 mi WSW 8.1 mph - N/A   Overcast
1:15 AM 15.8 °F 4.2 °F 1.4 °F 53% 30.35 in 10.0 mi SW 9.2 mph - N/A   Overcast
1:35 AM 15.8 °F 3.4 °F 1.4 °F 53% 30.36 in 10.0 mi SW 10.4 mph - N/A   Overcast
1:55 AM 15.8 °F 4.2 °F 1.4 °F 53% 30.36 in 10.0 mi SW 9.2 mph - N/A   Overcast
2:15 AM 15.8 °F 7.2 °F 1.4 °F 53% 30.37 in 10.0 mi WSW 5.8 mph - N/A   Overcast
2:35 AM 15.8 °F 2.7 °F 1.4 °F 53% 30.38 in 10.0 mi WSW 11.5 mph - N/A   Mostly Cloudy
2:55 AM 15.8 °F 6.1 °F 1.4 °F 53% 30.38 in 10.0 mi WSW 6.9 mph - N/A   Mostly Cloudy
3:15 AM 15.8 °F 4.2 °F 1.4 °F 53% 30.38 in 10.0 mi WSW 9.2 mph - N/A   Mostly Cloudy
3:35 AM 15.8 °F 5.1 °F 3.2 °F 58% 30.39 in 10.0 mi WSW 8.1 mph - N/A   Overcast
3:55 AM 15.8 °F 4.2 °F 1.4 °F 53% 30.39 in 10.0 mi WSW 9.2 mph 16.1 mph N/A   Overcast
4:15 AM 15.8 °F 2.7 °F 1.4 °F 53% 30.40 in 10.0 mi WSW 11.5 mph 16.1 mph N/A   Overcast
4:35 AM 15.8 °F 4.2 °F 3.2 °F 58% 30.40 in 10.0 mi WSW 9.2 mph - N/A   Overcast
4:55 AM 15.8 °F 4.2 °F 3.2 °F 58% 30.41 in 10.0 mi WSW 9.2 mph - N/A   Overcast
5:15 AM 15.8 °F 7.2 °F 3.2 °F 58% 30.41 in 10.0 mi WSW 5.8 mph - N/A   Overcast
5:35 AM 15.8 °F 6.1 °F 5.0 °F 62% 30.43 in 10.0 mi West 6.9 mph - N/A   Overcast
5:55 AM 15.8 °F 7.2 °F 5.0 °F 62% 30.43 in 10.0 mi West 5.8 mph - N/A   Overcast
6:15 AM 15.8 °F 7.2 °F 5.0 °F 62% 30.43 in 10.0 mi WSW 5.8 mph - N/A   Overcast
6:35 AM 15.8 °F 3.4 °F 5.0 °F 62% 30.44 in 10.0 mi WSW 10.4 mph - N/A   Overcast
6:55 AM 15.8 °F 5.1 °F 5.0 °F 62% 30.44 in 10.0 mi WSW 8.1 mph - N/A   Scattered Clouds
7:15 AM 15.8 °F 2.1 °F 6.8 °F 68% 30.46 in 10.0 mi WSW 12.7 mph - N/A   Clear
7:35 AM 15.8 °F 2.7 °F 6.8 °F 68% 30.47 in 10.0 mi West 11.5 mph - N/A   Clear
7:55 AM 15.8 °F 4.2 °F 6.8 °F 68% 30.48 in 9.0 mi WSW 9.2 mph - N/A   Partly Cloudy
8:15 AM 15.8 °F 1.4 °F 5.0 °F 62% 30.49 in 9.0 mi WSW 13.8 mph 19.6 mph N/A   Mostly Cloudy
8:35 AM 15.8 °F 6.1 °F 3.2 °F 58% 30.50 in 10.0 mi WNW 6.9 mph 16.1 mph N/A   Scattered Clouds
8:55 AM 15.8 °F 5.1 °F 5.0 °F 62% 30.51 in 10.0 mi West 8.1 mph - N/A   Scattered Clouds
9:15 AM 17.6 °F 7.3 °F 5.0 °F 58% 30.52 in 10.0 mi WNW 8.1 mph 16.1 mph N/A   Scattered Clouds
9:35 AM 17.6 °F 5.0 °F 5.0 °F 58% 30.53 in 10.0 mi West 11.5 mph 20.7 mph N/A   Scattered Clouds
9:55 AM 17.6 °F 4.3 °F 5.0 °F 58% 30.54 in 10.0 mi West 12.7 mph 19.6 mph N/A   Clear
10:15 AM 19.4 °F 10.4 °F 3.2 °F 49% 30.54 in 10.0 mi West 6.9 mph 19.6 mph N/A   Clear
10:35 AM 19.4 °F 7.9 °F 6.8 °F 58% 30.55 in 10.0 mi WNW 10.4 mph 16.1 mph N/A   Partly Cloudy
10:55 AM 19.4 °F 7.2 °F 3.2 °F 49% 30.55 in 10.0 mi WNW 11.5 mph 20.7 mph N/A   Clear
11:15 AM 19.4 °F 6.6 °F 3.2 °F 49% 30.54 in 10.0 mi West 12.7 mph 18.4 mph N/A   Partly Cloudy
11:35 AM 19.4 °F 7.9 °F 5.0 °F 54% 30.54 in 10.0 mi WNW 10.4 mph - N/A   Partly Cloudy
11:55 AM 19.4 °F 7.2 °F 5.0 °F 54% 30.53 in 10.0 mi WNW 11.5 mph 16.1 mph N/A   Partly Cloudy
12:15 PM 19.4 °F 8.6 °F 6.8 °F 58% 30.53 in 10.0 mi WSW 9.2 mph - N/A   Scattered Clouds
12:35 PM 21.2 °F 13.6 °F 5.0 °F 50% 30.53 in 10.0 mi West 5.8 mph - N/A   Partly Cloudy
12:55 PM 21.2 °F 13.6 °F 6.8 °F 54% 30.52 in 10.0 mi WNW 5.8 mph - N/A   Scattered Clouds
1:15 PM 21.2 °F 10.9 °F 3.2 °F 46% 30.53 in 10.0 mi NW 9.2 mph - N/A   Clear
1:35 PM 21.2 °F 11.7 °F 3.2 °F 46% 30.52 in 10.0 mi NW 8.1 mph - N/A   Clear
1:55 PM 21.2 °F 13.6 °F 5.0 °F 50% 30.52 in 10.0 mi NW 5.8 mph - N/A   Clear
2:15 PM 21.2 °F 10.9 °F 3.2 °F 46% 30.53 in 10.0 mi WNW 9.2 mph - N/A   Clear
2:35 PM 23.0 °F 13.9 °F 5.0 °F 46% 30.53 in 10.0 mi West 8.1 mph - N/A   Clear
2:55 PM 23.0 °F 13.1 °F 3.2 °F 43% 30.54 in 10.0 mi West 9.2 mph - N/A   Clear
3:35 PM 23.0 °F 15.8 °F 6.8 °F 50% 30.54 in 10.0 mi WSW 5.8 mph - N/A   Clear
3:55 PM 23.0 °F 17.0 °F 6.8 °F 50% 30.54 in 10.0 mi West 4.6 mph - N/A   Clear
4:15 PM 21.2 °F 14.9 °F 3.2 °F 46% 30.55 in 10.0 mi SW 4.6 mph - N/A   Clear
4:35 PM 21.2 °F 16.4 °F 5.0 °F 50% 30.54 in 10.0 mi SSW 3.5 mph - N/A   Clear
4:55 PM 21.2 °F - 6.8 °F 54% 30.54 in 10.0 mi Calm Calm - N/A   Clear
5:15 PM 17.6 °F 10.7 °F 8.6 °F 68% 30.55 in 10.0 mi SE 4.6 mph - N/A   Clear
6:15 PM 15.8 °F 2.7 °F 6.8 °F 68% 30.55 in 10.0 mi SE 11.5 mph 16.1 mph N/A   Clear
6:35 PM 15.8 °F 2.1 °F 6.8 °F 68% 30.56 in 10.0 mi SE 12.7 mph - N/A   Clear
6:55 PM 15.8 °F 2.7 °F 6.8 °F 68% 30.56 in 10.0 mi ESE 11.5 mph - N/A   Clear
7:15 PM 14.0 °F -0.2 °F 6.8 °F 73% 30.57 in 10.0 mi SE 12.7 mph - N/A   Clear
7:35 PM 12.2 °F -0.2 °F 6.8 °F 79% 30.57 in 10.0 mi SE 9.2 mph - N/A   Clear
7:55 PM 12.2 °F -2.5 °F 5.0 °F 73% 30.56 in 10.0 mi ESE 12.7 mph - N/A   Clear
8:15 PM 12.2 °F -0.2 °F 5.0 °F 73% 30.56 in 10.0 mi ESE 9.2 mph - N/A   Clear
8:35 PM 10.4 °F -3.3 °F 3.2 °F 73% 30.56 in 10.0 mi ESE 10.4 mph - N/A   Clear
8:55 PM 10.4 °F -3.3 °F 5.0 °F 79% 30.55 in 10.0 mi ESE 10.4 mph - N/A   Clear
9:15 PM 10.4 °F -4.8 °F 3.2 °F 73% 30.55 in 10.0 mi ESE 12.7 mph - N/A   Clear
9:35 PM 10.4 °F -4.8 °F 3.2 °F 73% 30.55 in 10.0 mi ESE 12.7 mph - N/A   Clear
9:55 PM 8.6 °F -5.5 °F 3.2 °F 79% 30.55 in 10.0 mi ESE 10.4 mph - N/A   Clear
10:15 PM 8.6 °F -6.3 °F 1.4 °F 73% 30.54 in 10.0 mi SE 11.5 mph - N/A   Clear
10:35 PM 8.6 °F -7.0 °F 3.2 °F 79% 30.54 in 10.0 mi SE 12.7 mph - N/A   Clear
10:55 PM 10.4 °F -4.8 °F 6.8 °F 85% 30.52 in 10.0 mi ESE 12.7 mph - N/A   Clear
11:15 PM 8.6 °F -7.0 °F 3.2 °F 79% 30.52 in 10.0 mi ESE 12.7 mph - N/A   Clear
11:35 PM 8.6 °F -5.5 °F 3.2 °F 79% 30.51 in 10.0 mi SE 10.4 mph - N/A   Clear
11:55 PM 8.6 °F -7.0 °F 3.2 °F 79% 30.51 in 10.0 mi SE 12.7 mph - N/A   Clear